Powrót do katalogu

STARLINK-37713

AktywnyŁącznośćSSO
NORAD 69212·PAYLOAD·🇺🇸 United States

Wystrzelony May 26, 2026 z Vandenberg Space Force Base

Loading…

Następne Przeloty (najbliższe 24 godziny)

TLE

ŚwieżeSource: CelesTrak SupGP

Epoka: Sep 14, 2026, 22:33 UTC

1 69212C 26115B   26257.94006944  .00045564  00000+0  14145-2 0  2570
2 69212  97.2832 274.0492 0001487  88.2191 290.1778 15.33414632    17

Śledź STARLINK-37713 w czasie rzeczywistym z AllMySat

Download on the App Store